Denver, CO

5:32 PM MDT on October 21, 2017 (GMT -0600)
Denver International

Weather History for KDEN - October, 2011

Change the Weather History Date:

Wednesday, October 12, 2011

  Actual Average Record
Temperature  
Mean Temperature 52 °F 52 °F  
Max Temperature 65 °F 67 °F 87 °F (1950)
Min Temperature 39 °F 38 °F 10 °F (1969)
Degree Days  
Heating Degree Days 13 13  
Month to date heating degree days 94 129  
Since 1 July heating degree days 189 270  
Cooling Degree Days 0 0  
Month to date cooling degree days 21 1  
Year to date cooling degree days 962 765  
Growing Degree Days 4 (Base 50)    
Moisture  
Dew Point 27 °F    
Average Humidity 42    
Maximum Humidity 65    
Minimum Humidity 19    
Precipitation  
Precipitation 0.00 in 0.04 in 2.11 in (1892)
Month to date precipitation 1.04 0.43  
Year to date precipitation 15.31 12.75  
Snow  
Snow 0.00 in - - ()
Month to date snowfall T  
Since 1 July snowfall T  
Since 1 September snowfall T  
Snow Depth 0.00 in    
Sea Level Pressure  
Sea Level Pressure 29.96 in    
Wind  
Wind Speed 10 mph (NNE)    
Max Wind Speed 17 mph    
Max Gust Speed 23 mph    
Visibility 10 miles    
Events      
T = Trace of Precipitation, MM = Missing Value Source: NWS Daily Summary

Daily Weather History Graph

Daily Weather History Graph

Search for Another Location

Airport or City:

Trip Planner

Search our weather history database for the weather conditions in past years. The results will help you decide how hot, cold, wet, or windy it might be!

Date:

Astronomy

Oct. 12, 2011 Rise Set
Actual Time 7:05 AM MDT 6:24 PM MDT
Civil Twilight 6:38 AM MDT 6:51 PM MDT
Nautical Twilight 6:07 AM MDT 7:22 PM MDT
Astronomical Twilight 5:35 AM MDT 7:53 PM MDT
Moon 6:27 PM MDT (10/12) 7:42 AM MDT (10/12)
Length of Visible Light 12h 12m
Length of Day
11h 18m
Full, 100% of the Moon is Illuminated
Oct 12
Full
Oct 19
Last Quarter
Oct 26
New
Nov 2
First Quarter
Nov 10
Full

Hourly Weather History & Observations

Time (MDT) Temp. Windchill Dew Point Humidity Pressure Visibility Wind Dir Wind Speed Gust Speed Precip Events Conditions
12:53 AM 53.6 °F - 33.8 °F 47% 29.95 in 10.0 mi WSW 15.0 mph - N/A   Scattered Clouds
1:53 AM 55.0 °F - 33.1 °F 43% 29.80 in 10.0 mi West 16.1 mph - N/A   Scattered Clouds
2:53 AM 48.9 °F - 34.0 °F 56% 29.84 in 10.0 mi West 9.2 mph - N/A   Scattered Clouds
3:53 AM 48.9 °F - 34.0 °F 56% 29.85 in 10.0 mi West 8.1 mph - N/A   Scattered Clouds
4:53 AM 50.0 °F - 30.9 °F 48% 29.86 in 10.0 mi WNW 8.1 mph - N/A   Partly Cloudy
5:53 AM 48.0 °F - 28.0 °F 46% 29.90 in 10.0 mi NW 8.1 mph - N/A   Partly Cloudy
6:53 AM 48.2 °F - 26.6 °F 43% 30.06 in 10.0 mi WNW 5.8 mph - N/A   Partly Cloudy
7:53 AM 50.0 °F - 26.1 °F 39% 29.95 in 10.0 mi NW 10.4 mph - N/A   Partly Cloudy
8:53 AM 53.1 °F - 27.0 °F 37% 29.97 in 10.0 mi North 12.7 mph - N/A   Partly Cloudy
9:53 AM 55.9 °F - 26.1 °F 32% 29.98 in 10.0 mi North 12.7 mph - N/A   Partly Cloudy
10:53 AM 60.1 °F - 23.0 °F 24% 29.97 in 10.0 mi North 10.4 mph 17.3 mph N/A   Partly Cloudy
11:53 AM 61.0 °F - 23.0 °F 23% 29.96 in 10.0 mi NNE 10.4 mph - N/A   Partly Cloudy
12:53 PM 61.0 °F - 23.0 °F 23% 29.96 in 10.0 mi NE 8.1 mph - N/A   Partly Cloudy
1:53 PM 63.0 °F - 21.9 °F 21% 29.91 in 10.0 mi NE 8.1 mph - N/A   Partly Cloudy
2:53 PM 64.4 °F - 21.2 °F 19% 30.06 in 10.0 mi ENE 8.1 mph - N/A   Partly Cloudy
3:53 PM 64.0 °F - 21.0 °F 19% 29.92 in 10.0 mi East 6.9 mph - N/A   Partly Cloudy
4:53 PM 63.0 °F - 23.0 °F 22% 29.93 in 10.0 mi East 9.2 mph - N/A   Partly Cloudy
5:53 PM 59.0 °F - 26.1 °F 28% 29.96 in 10.0 mi East 8.1 mph - N/A   Partly Cloudy
6:53 PM 51.1 °F - 30.0 °F 44% 30.00 in 10.0 mi ESE 10.4 mph - N/A   Partly Cloudy
7:53 PM 46.4 °F 41.1 °F 30.2 °F 53% 30.11 in 10.0 mi SE 11.5 mph - N/A   Partly Cloudy
8:53 PM 46.0 °F 41.4 °F 30.0 °F 54% 30.02 in 10.0 mi SSE 9.2 mph - N/A   Clear
9:53 PM 46.9 °F - 28.9 °F 50% 30.02 in 10.0 mi South 11.5 mph - N/A   Clear
10:53 PM 43.0 °F 37.7 °F 28.9 °F 58% 30.02 in 10.0 mi South 9.2 mph - N/A   Clear
11:53 PM 41.0 °F 34.3 °F 30.2 °F 65% 30.12 in 10.0 mi SSE 11.5 mph - N/A   Clear